Find Starlink 31307

NORAD ID: 59089 Int'l Des: 2024-041 Owner: SPXS Country: US Constellation: starlink operational
LEOCIRCULAR

現在のビュー

3D地球を読み込み中...

About Starlink 31307

Starlink 31307 (NORAD 59089) is a starlink constellation satellite (v2 mini) launched Feb 29, 2024 by SPXS of US. It operates in LEO, CIRCULAR orbit with a mass of 730.00 kg.

Starlink 31307について

説明を読み込み中...

次回通過

Passes for default location (London). Set your location on the main map for personalized predictions.

高度履歴

Loading altitude history...

軌道要素

1 59089U 24041R 26168.14284164 .00000285 00000-0 19888-4 0 9998
2 59089 43.0018 108.8745 0000854 272.5774 87.4980 15.27577211129537
Epoch: Jun 17, 2026 • Age: 29 hours

現在のステータス

高度 485.6 km
速度 7.63 km/s
衛星直下点 38.29°N, 133.56°E
打ち上げ日 Feb 29, 2024
運用期間 2.2 years
タイプ internet

技術仕様

分類 Payload
質量 730.00 kg
乾燥質量 700.00 kg
総質量 730.00 kg
長さ 0.30 m
直径 4.10 m
スパン 29.00 m
形状 Box + pan
製造者 SPXS
バスタイプ Starlink V2M
フェーズステータス In Orbit
所有者/国 SPXS/US

Most Searched